STARLINK AE (44263 NORAD) Tracking and Keplerian Element Data

This shows tracking and keplerian element data for the satellite.

Feedback or suggestion? Click here.




ElementValue
Catalog44263
NameSTARLINK AE
Epoch Orbit464
Epoch Day173.93611926
Epoch Year2019
RAAN38.0046
Inclination53.0047
Eccentricity0.0002503
Argument of Perigee116.1015
Mean Anonmoly244.0401
Mean Motion15.05458219
Decay Rate1.596E-05
L11 44263U 19029AE 19173.93611926 .00001596 00000-0 12909-3 0 9993
L22 44263 53.0047 38.0046 0002503 116.1015 244.0401 15.05458219 4645

Live tracking and technical data element details for STARLINK AE (NORAD 44263). STARLINK AE can be tracked NOW for your location showing map with azimuth and elevation plus other details from your city location.

Track the satellite on the map from your city or location and see movement details for azimuth, elevation, latitude, longitude, range, height, and movement on the map or in text.







IsCatalogInMostPopularTable: catalog: 44263, numindb: 28
Update: records affected: 1



GetName: 44263 STARLINK AE

Hit Count: updated at: Tue, 16 Jul 2019 20:16:01 GMT